"Time","Value","Approval","myLocation"
"2023-05-06 00:00",6.529,"Working","OW115"
"2023-05-06 01:00",6.425,"Working","OW115"
"2023-05-06 02:00",6.314,"Working","OW115"
"2023-05-06 03:00",6.192,"Working","OW115"
"2023-05-06 04:00",6.062,"Working","OW115"
"2023-05-06 05:00",5.957,"Working","OW115"
"2023-05-06 06:00",5.837,"Working","OW115"
"2023-05-06 07:00",5.715,"Working","OW115"
"2023-05-06 08:00",5.582,"Working","OW115"
"2023-05-06 09:00",5.454,"Working","OW115"
"2023-05-06 10:00",5.301,"Working","OW115"
"2023-05-06 11:00",5.143,"Working","OW115"
"2023-05-06 12:00",4.988,"Working","OW115"
"2023-05-06 13:00",4.831,"Working","OW115"
"2023-05-06 14:00",4.671,"Working","OW115"
"2023-05-06 15:00",4.515,"Working","OW115"
"2023-05-06 16:00",4.367,"Working","OW115"
"2023-05-06 17:00",4.21,"Working","OW115"
"2023-05-06 18:00",4.066,"Working","OW115"
"2023-05-06 19:00",3.969,"Working","OW115"
"2023-05-06 20:00",3.822,"Working","OW115"
"2023-05-06 21:00",3.63,"Working","OW115"
"2023-05-06 22:00",3.438,"Working","OW115"
"2023-05-06 23:00",3.248,"Working","OW115"
"2023-05-07 00:00",3.067,"Working","OW115"
"2023-05-07 01:00",2.907,"Working","OW115"
"2023-05-07 02:00",2.807,"Working","OW115"
"2023-05-07 03:00",2.725,"Working","OW115"
"2023-05-07 04:00",2.654,"Working","OW115"
"2023-05-07 05:00",2.606,"Working","OW115"
"2023-05-07 06:00",2.568,"Working","OW115"
"2023-05-07 07:00",2.531,"Working","OW115"
"2023-05-07 08:00",2.492,"Working","OW115"
"2023-05-07 09:00",2.443,"Working","OW115"
"2023-05-07 10:00",2.371,"Working","OW115"
"2023-05-07 11:00",2.204,"Working","OW115"
"2023-05-07 12:00",2.051,"Working","OW115"
"2023-05-07 13:00",1.944,"Working","OW115"
"2023-05-07 14:00",1.871,"Working","OW115"
"2023-05-07 15:00",1.82,"Working","OW115"
"2023-05-07 16:00",1.783,"Working","OW115"
"2023-05-07 17:00",1.757,"Working","OW115"
"2023-05-07 18:00",1.74,"Working","OW115"
"2023-05-07 19:00",1.731,"Working","OW115"
"2023-05-07 20:00",1.728,"Working","OW115"
"2023-05-07 21:00",1.728,"Working","OW115"
"2023-05-07 22:00",1.729,"Working","OW115"
"2023-05-07 23:00",1.731,"Working","OW115"
"2023-05-08 00:00",1.732,"Working","OW115"
"2023-05-08 01:00",1.734,"Working","OW115"
"2023-05-08 02:00",1.736,"Working","OW115"
"2023-05-08 03:00",1.74,"Working","OW115"
"2023-05-08 04:00",1.743,"Working","OW115"
"2023-05-08 05:00",1.746,"Working","OW115"
"2023-05-08 06:00",1.747,"Working","OW115"
"2023-05-08 07:00",1.75,"Working","OW115"
"2023-05-08 08:00",1.754,"Working","OW115"
"2023-05-08 09:00",1.759,"Working","OW115"
"2023-05-08 10:00",1.762,"Working","OW115"
"2023-05-08 11:00",1.765,"Working","OW115"
"2023-05-08 12:00",1.768,"Working","OW115"
"2023-05-08 13:00",1.771,"Working","OW115"
"2023-05-08 14:00",1.776,"Working","OW115"
"2023-05-08 15:00",1.781,"Working","OW115"
"2023-05-08 16:00",1.785,"Working","OW115"
"2023-05-08 17:00",1.79,"Working","OW115"
"2023-05-08 18:00",1.79,"Working","OW115"
"2023-05-08 19:00",1.792,"Working","OW115"
"2023-05-08 20:00",1.793,"Working","OW115"
"2023-05-08 21:00",1.795,"Working","OW115"
"2023-05-08 22:00",1.796,"Working","OW115"
"2023-05-08 23:00",1.798,"Working","OW115"
"2023-05-09 00:00",1.854,"Working","OW115"
"2023-05-09 01:00",1.842,"Working","OW115"
"2023-05-09 02:00",1.834,"Working","OW115"
"2023-05-09 03:00",1.826,"Working","OW115"
"2023-05-09 04:00",1.82,"Working","OW115"
"2023-05-09 05:00",1.816,"Working","OW115"
"2023-05-09 06:00",1.81,"Working","OW115"
"2023-05-09 07:00",1.805,"Working","OW115"
"2023-05-09 08:00",1.801,"Working","OW115"
"2023-05-09 09:00",1.796,"Working","OW115"
"2023-05-09 10:00",1.791,"Working","OW115"
"2023-05-09 11:00",1.82,"Working","OW115"
"2023-05-09 12:00",1.81,"Working","OW115"
"2023-05-09 13:00",1.801,"Working","OW115"
"2023-05-09 14:00",1.794,"Working","OW115"
"2023-05-09 15:00",1.789,"Working","OW115"
"2023-05-09 16:00",1.785,"Working","OW115"
"2023-05-09 17:00",1.782,"Working","OW115"
"2023-05-09 18:00",1.779,"Working","OW115"
"2023-05-09 19:00",1.776,"Working","OW115"
"2023-05-09 20:00",1.774,"Working","OW115"
"2023-05-09 21:00",1.772,"Working","OW115"
"2023-05-09 22:00",1.771,"Working","OW115"
"2023-05-09 23:00",1.77,"Working","OW115"
"2023-05-10 00:00",1.803,"Working","OW115"
"2023-05-10 01:00",1.796,"Working","OW115"
"2023-05-10 02:00",1.789,"Working","OW115"
"2023-05-10 03:00",1.785,"Working","OW115"
"2023-05-10 04:00",1.782,"Working","OW115"
"2023-05-10 05:00",1.778,"Working","OW115"
"2023-05-10 06:00",1.775,"Working","OW115"
"2023-05-10 07:00",1.77,"Working","OW115"
"2023-05-10 08:00",1.766,"Working","OW115"
"2023-05-10 09:00",1.761,"Working","OW115"
"2023-05-10 10:00",1.757,"Working","OW115"
"2023-05-10 11:00",1.754,"Working","OW115"
"2023-05-10 12:00",1.75,"Working","OW115"
"2023-05-10 13:00",1.746,"Working","OW115"
"2023-05-10 14:00",1.742,"Working","OW115"
"2023-05-10 15:00",1.738,"Working","OW115"
"2023-05-10 16:00",1.734,"Working","OW115"
"2023-05-10 17:00",1.732,"Working","OW115"
"2023-05-10 18:00",1.73,"Working","OW115"
"2023-05-10 19:00",1.727,"Working","OW115"
"2023-05-10 20:00",1.724,"Working","OW115"
"2023-05-10 21:00",1.723,"Working","OW115"
"2023-05-10 22:00",1.722,"Working","OW115"
"2023-05-10 23:00",1.721,"Working","OW115"
"2023-05-11 00:00",1.721,"Working","OW115"
"2023-05-11 01:00",1.722,"Working","OW115"
"2023-05-11 02:00",1.761,"Working","OW115"
"2023-05-11 03:00",1.75,"Working","OW115"
"2023-05-11 04:00",1.742,"Working","OW115"
"2023-05-11 05:00",1.737,"Working","OW115"
"2023-05-11 06:00",1.73,"Working","OW115"
"2023-05-11 07:00",1.724,"Working","OW115"
"2023-05-11 08:00",1.72,"Working","OW115"
"2023-05-11 09:00",1.716,"Working","OW115"
"2023-05-11 10:00",1.715,"Working","OW115"
"2023-05-11 11:00",1.713,"Working","OW115"
"2023-05-11 12:00",1.713,"Working","OW115"
"2023-05-11 13:00",1.712,"Working","OW115"
"2023-05-11 14:00",1.711,"Working","OW115"
"2023-05-11 15:00",1.71,"Working","OW115"
"2023-05-11 16:00",1.712,"Working","OW115"
"2023-05-11 17:00",1.714,"Working","OW115"
"2023-05-11 18:00",1.716,"Working","OW115"
"2023-05-11 19:00",1.717,"Working","OW115"
"2023-05-11 20:00",1.717,"Working","OW115"
"2023-05-11 21:00",1.717,"Working","OW115"
"2023-05-11 22:00",1.716,"Working","OW115"
"2023-05-11 23:00",1.713,"Working","OW115"
"2023-05-12 00:00",1.713,"Working","OW115"
"2023-05-12 01:00",1.739,"Working","OW115"
"2023-05-12 02:00",1.73,"Working","OW115"
"2023-05-12 03:00",1.722,"Working","OW115"
"2023-05-12 04:00",1.718,"Working","OW115"
"2023-05-12 05:00",1.715,"Working","OW115"
"2023-05-12 06:00",1.712,"Working","OW115"
"2023-05-12 07:00",1.712,"Working","OW115"
"2023-05-12 08:00",1.712,"Working","OW115"
"2023-05-12 09:00",1.714,"Working","OW115"
"2023-05-12 10:00",1.716,"Working","OW115"
"2023-05-12 11:00",1.717,"Working","OW115"
"2023-05-12 12:00",1.718,"Working","OW115"
"2023-05-12 13:00",1.72,"Working","OW115"
"2023-05-12 14:00",1.721,"Working","OW115"
"2023-05-12 15:00",1.722,"Working","OW115"
"2023-05-12 16:00",1.722,"Working","OW115"
"2023-05-12 17:00",1.723,"Working","OW115"
"2023-05-12 18:00",1.725,"Working","OW115"
"2023-05-12 19:00",1.726,"Working","OW115"
"2023-05-12 20:00",1.727,"Working","OW115"
"2023-05-12 21:00",1.728,"Working","OW115"
"2023-05-12 22:00",1.728,"Working","OW115"
"2023-05-12 23:00",1.727,"Working","OW115"
"2023-05-13 00:00",1.726,"Working","OW115"
"2023-05-13 01:00",1.724,"Working","OW115"
"2023-05-13 02:00",1.722,"Working","OW115"
"2023-05-13 03:00",1.718,"Working","OW115"
"2023-05-13 04:00",1.714,"Working","OW115"
"2023-05-13 05:00",1.708,"Working","OW115"
"2023-05-13 06:00",1.7,"Working","OW115"
"2023-05-13 07:00",1.691,"Working","OW115"
"2023-05-13 08:00",1.681,"Working","OW115"
"2023-05-13 09:00",1.668,"Working","OW115"
"2023-05-13 10:00",1.655,"Working","OW115"
"2023-05-13 11:00",1.659,"Working","OW115"
"2023-05-13 12:00",1.657,"Working","OW115"
"2023-05-13 13:00",1.639,"Working","OW115"
"2023-05-13 14:00",1.623,"Working","OW115"
"2023-05-13 15:00",1.611,"Working","OW115"
"2023-05-13 16:00",1.617,"Working","OW115"
"2023-05-13 17:00",1.599,"Working","OW115"
"2023-05-13 18:00",1.604,"Working","OW115"
"2023-05-13 19:00",1.584,"Working","OW115"
"2023-05-13 20:00",1.568,"Working","OW115"
"2023-05-13 21:00",1.568,"Working","OW115"
"2023-05-13 22:00",1.556,"Working","OW115"
"2023-05-13 23:00",1.54,"Working","OW115"
"2023-05-14 00:00",1.526,"Working","OW115"
"2023-05-14 01:00",1.51,"Working","OW115"
"2023-05-14 02:00",1.493,"Working","OW115"
"2023-05-14 03:00",1.475,"Working","OW115"
"2023-05-14 04:00",1.455,"Working","OW115"
"2023-05-14 05:00",1.434,"Working","OW115"
"2023-05-14 06:00",1.412,"Working","OW115"
"2023-05-14 07:00",1.39,"Working","OW115"
"2023-05-14 08:00",1.368,"Working","OW115"
"2023-05-14 09:00",1.355,"Working","OW115"
"2023-05-14 10:00",1.338,"Working","OW115"
"2023-05-14 11:00",1.322,"Working","OW115"
"2023-05-14 12:00",1.305,"Working","OW115"
"2023-05-14 13:00",1.291,"Working","OW115"
"2023-05-14 14:00",1.278,"Working","OW115"
"2023-05-14 15:00",1.269,"Working","OW115"
"2023-05-14 16:00",1.271,"Working","OW115"
"2023-05-14 17:00",1.264,"Working","OW115"
"2023-05-14 18:00",1.259,"Working","OW115"
"2023-05-14 19:00",1.255,"Working","OW115"
"2023-05-14 20:00",1.249,"Working","OW115"
"2023-05-14 21:00",1.244,"Working","OW115"
"2023-05-14 22:00",1.237,"Working","OW115"
"2023-05-14 23:00",1.226,"Working","OW115"
"2023-05-15 00:00",1.212,"Working","OW115"
"2023-05-15 01:00",1.196,"Working","OW115"
"2023-05-15 02:00",1.178,"Working","OW115"
"2023-05-15 03:00",1.16,"Working","OW115"
"2023-05-15 04:00",1.142,"Working","OW115"
"2023-05-15 05:00",1.127,"Working","OW115"
"2023-05-15 06:00",1.111,"Working","OW115"
"2023-05-15 07:00",1.096,"Working","OW115"
"2023-05-15 08:00",1.083,"Working","OW115"
"2023-05-15 09:00",1.072,"Working","OW115"
"2023-05-15 10:00",1.063,"Working","OW115"
"2023-05-15 11:00",1.056,"Working","OW115"
"2023-05-15 12:00",1.054,"Working","OW115"
"2023-05-15 13:00",1.05,"Working","OW115"
"2023-05-15 14:00",1.044,"Working","OW115"
"2023-05-15 15:00",1.039,"Working","OW115"
"2023-05-15 16:00",1.035,"Working","OW115"
"2023-05-15 17:00",1.033,"Working","OW115"
"2023-05-15 18:00",1.031,"Working","OW115"
"2023-05-15 19:00",1.03,"Working","OW115"
"2023-05-15 20:00",1.027,"Working","OW115"
"2023-05-15 21:00",1.021,"Working","OW115"
"2023-05-15 22:00",1.013,"Working","OW115"
"2023-05-15 23:00",1.002,"Working","OW115"
"2023-05-16 00:00",0.988,"Working","OW115"
"2023-05-16 01:00",0.973,"Working","OW115"
"2023-05-16 02:00",0.959,"Working","OW115"
"2023-05-16 03:00",0.943,"Working","OW115"
"2023-05-16 04:00",0.922,"Working","OW115"
"2023-05-16 05:00",0.9,"Working","OW115"
"2023-05-16 06:00",0.881,"Working","OW115"
"2023-05-16 07:00",0.863,"Working","OW115"
"2023-05-16 08:00",0.849,"Working","OW115"
"2023-05-16 09:00",0.839,"Working","OW115"
"2023-05-16 10:00",0.835,"Working","OW115"
"2023-05-16 11:00",0.827,"Working","OW115"
"2023-05-16 12:00",0.823,"Working","OW115"
"2023-05-16 13:00",0.821,"Working","OW115"
"2023-05-16 14:00",0.82,"Working","OW115"
"2023-05-16 15:00",0.821,"Working","OW115"
"2023-05-16 16:00",0.822,"Working","OW115"
"2023-05-16 17:00",0.825,"Working","OW115"
"2023-05-16 18:00",0.829,"Working","OW115"
"2023-05-16 19:00",0.833,"Working","OW115"
"2023-05-16 20:00",0.835,"Working","OW115"
"2023-05-16 21:00",0.834,"Working","OW115"
"2023-05-16 22:00",0.825,"Working","OW115"
"2023-05-16 23:00",0.814,"Working","OW115"
"2023-05-17 00:00",0.803,"Working","OW115"
"2023-05-17 01:00",0.792,"Working","OW115"
"2023-05-17 02:00",0.782,"Working","OW115"
"2023-05-17 03:00",0.773,"Working","OW115"
"2023-05-17 04:00",0.766,"Working","OW115"
"2023-05-17 05:00",0.759,"Working","OW115"
"2023-05-17 06:00",0.754,"Working","OW115"
"2023-05-17 07:00",0.75,"Working","OW115"
"2023-05-17 08:00",0.748,"Working","OW115"
"2023-05-17 09:00",0.747,"Working","OW115"
"2023-05-17 10:00",0.747,"Working","OW115"
"2023-05-17 11:00",0.749,"Working","OW115"
"2023-05-17 12:00",0.752,"Working","OW115"
"2023-05-17 13:00",0.756,"Working","OW115"
"2023-05-17 14:00",0.761,"Working","OW115"
"2023-05-17 15:00",0.766,"Working","OW115"
"2023-05-17 16:00",0.771,"Working","OW115"
"2023-05-17 17:00",0.776,"Working","OW115"
"2023-05-17 18:00",0.782,"Working","OW115"
"2023-05-17 19:00",0.787,"Working","OW115"
"2023-05-17 20:00",0.792,"Working","OW115"
"2023-05-17 21:00",0.793,"Working","OW115"
"2023-05-17 22:00",0.789,"Working","OW115"
"2023-05-17 23:00",0.78,"Working","OW115"
"2023-05-18 00:00",0.767,"Working","OW115"
"2023-05-18 01:00",0.753,"Working","OW115"
"2023-05-18 02:00",0.739,"Working","OW115"
"2023-05-18 03:00",0.727,"Working","OW115"
"2023-05-18 04:00",0.717,"Working","OW115"
"2023-05-18 05:00",0.709,"Working","OW115"
"2023-05-18 06:00",0.702,"Working","OW115"
"2023-05-18 07:00",0.697,"Working","OW115"
"2023-05-18 08:00",0.695,"Working","OW115"
"2023-05-18 09:00",0.694,"Working","OW115"
"2023-05-18 10:00",0.696,"Working","OW115"
"2023-05-18 11:00",0.698,"Working","OW115"
"2023-05-18 12:00",0.702,"Working","OW115"
"2023-05-18 13:00",0.707,"Working","OW115"
"2023-05-18 14:00",0.713,"Working","OW115"
"2023-05-18 15:00",0.721,"Working","OW115"
"2023-05-18 16:00",0.728,"Working","OW115"
"2023-05-18 17:00",0.736,"Working","OW115"
"2023-05-18 18:00",0.744,"Working","OW115"
"2023-05-18 19:00",0.752,"Working","OW115"
"2023-05-18 20:00",0.757,"Working","OW115"
"2023-05-18 21:00",0.757,"Working","OW115"
"2023-05-18 22:00",0.749,"Working","OW115"
"2023-05-18 23:00",0.736,"Working","OW115"
"2023-05-19 00:00",0.721,"Working","OW115"
"2023-05-19 01:00",0.703,"Working","OW115"
"2023-05-19 02:00",0.686,"Working","OW115"
"2023-05-19 03:00",0.673,"Working","OW115"
"2023-05-19 04:00",0.662,"Working","OW115"
"2023-05-19 05:00",0.653,"Working","OW115"
"2023-05-19 06:00",0.646,"Working","OW115"
"2023-05-19 07:00",0.641,"Working","OW115"
"2023-05-19 08:00",0.636,"Working","OW115"
"2023-05-19 09:00",0.632,"Working","OW115"
"2023-05-19 10:00",0.629,"Working","OW115"
"2023-05-19 11:00",0.628,"Working","OW115"
"2023-05-19 12:00",0.627,"Working","OW115"
"2023-05-19 13:00",0.628,"Working","OW115"
"2023-05-19 14:00",0.632,"Working","OW115"
"2023-05-19 15:00",0.637,"Working","OW115"
"2023-05-19 16:00",0.643,"Working","OW115"
"2023-05-19 17:00",0.65,"Working","OW115"
"2023-05-19 18:00",0.658,"Working","OW115"
"2023-05-19 19:00",0.665,"Working","OW115"
"2023-05-19 20:00",0.669,"Working","OW115"
"2023-05-19 21:00",0.664,"Working","OW115"
"2023-05-19 22:00",0.652,"Working","OW115"
"2023-05-19 23:00",0.634,"Working","OW115"
"2023-05-20 00:00",0.618,"Working","OW115"
"2023-05-20 01:00",0.604,"Working","OW115"
"2023-05-20 02:00",0.592,"Working","OW115"
"2023-05-20 03:00",0.583,"Working","OW115"
"2023-05-20 04:00",0.578,"Working","OW115"
"2023-05-20 05:00",0.576,"Working","OW115"
"2023-05-20 06:00",0.576,"Working","OW115"
"2023-05-20 07:00",0.578,"Working","OW115"
"2023-05-20 08:00",0.582,"Working","OW115"
"2023-05-20 09:00",0.587,"Working","OW115"
"2023-05-20 10:00",0.594,"Working","OW115"
"2023-05-20 11:00",0.601,"Working","OW115"
"2023-05-20 12:00",0.61,"Working","OW115"
"2023-05-20 13:00",0.619,"Working","OW115"
"2023-05-20 14:00",0.629,"Working","OW115"
"2023-05-20 15:00",0.639,"Working","OW115"
"2023-05-20 16:00",0.648,"Working","OW115"
"2023-05-20 17:00",0.658,"Working","OW115"
"2023-05-20 18:00",0.668,"Working","OW115"
"2023-05-20 19:00",0.674,"Working","OW115"
"2023-05-20 20:00",0.674,"Working","OW115"
"2023-05-20 21:00",0.669,"Working","OW115"
"2023-05-20 22:00",0.656,"Working","OW115"
"2023-05-20 23:00",0.638,"Working","OW115"
"2023-05-21 00:00",0.62,"Working","OW115"
"2023-05-21 01:00",0.604,"Working","OW115"
"2023-05-21 02:00",0.591,"Working","OW115"
"2023-05-21 03:00",0.581,"Working","OW115"
"2023-05-21 04:00",0.574,"Working","OW115"
"2023-05-21 05:00",0.57,"Working","OW115"
"2023-05-21 06:00",0.567,"Working","OW115"
"2023-05-21 07:00",0.566,"Working","OW115"
"2023-05-21 08:00",0.568,"Working","OW115"
"2023-05-21 09:00",0.571,"Working","OW115"
"2023-05-21 10:00",0.575,"Working","OW115"
"2023-05-21 11:00",0.581,"Working","OW115"
"2023-05-21 12:00",0.588,"Working","OW115"
"2023-05-21 14:00",0.609,"Working","OW115"
"2023-05-21 15:00",0.619,"Working","OW115"
"2023-05-21 16:00",0.628,"Working","OW115"
"2023-05-21 17:00",0.633,"Working","OW115"
"2023-05-21 18:00",0.637,"Working","OW115"
"2023-05-21 19:00",0.64,"Working","OW115"
"2023-05-21 20:00",0.639,"Working","OW115"
"2023-05-21 21:00",0.633,"Working","OW115"
"2023-05-21 22:00",0.622,"Working","OW115"
"2023-05-21 23:00",0.598,"Working","OW115"
"2023-05-22 00:00",0.572,"Working","OW115"
"2023-05-22 01:00",0.55,"Working","OW115"
"2023-05-22 02:00",0.534,"Working","OW115"
"2023-05-22 03:00",0.523,"Working","OW115"
"2023-05-22 04:00",0.516,"Working","OW115"
"2023-05-22 05:00",0.515,"Working","OW115"
"2023-05-22 06:00",0.517,"Working","OW115"
"2023-05-22 07:00",0.522,"Working","OW115"
"2023-05-22 08:00",0.53,"Working","OW115"
"2023-05-22 09:00",0.54,"Working","OW115"
"2023-05-22 10:00",0.551,"Working","OW115"
"2023-05-22 11:00",0.562,"Working","OW115"
"2023-05-22 12:00",0.574,"Working","OW115"
"2023-05-22 13:00",0.584,"Working","OW115"
"2023-05-22 14:00",0.593,"Working","OW115"
"2023-05-22 15:00",0.599,"Working","OW115"
"2023-05-22 16:00",0.605,"Working","OW115"
"2023-05-22 17:00",0.611,"Working","OW115"
"2023-05-22 18:00",0.618,"Working","OW115"
"2023-05-22 19:00",0.623,"Working","OW115"
"2023-05-22 20:00",0.626,"Working","OW115"
"2023-05-22 21:00",0.624,"Working","OW115"
"2023-05-22 22:00",0.619,"Working","OW115"
"2023-05-22 23:00",0.609,"Working","OW115"
"2023-05-23 00:00",0.596,"Working","OW115"
"2023-05-23 01:00",0.577,"Working","OW115"
"2023-05-23 02:00",0.559,"Working","OW115"
"2023-05-23 03:00",0.542,"Working","OW115"
"2023-05-23 04:00",0.524,"Working","OW115"
"2023-05-23 05:00",0.509,"Working","OW115"
"2023-05-23 06:00",0.497,"Working","OW115"
"2023-05-23 07:00",0.488,"Working","OW115"
"2023-05-23 08:00",0.482,"Working","OW115"
"2023-05-23 09:00",0.481,"Working","OW115"
"2023-05-23 10:00",0.484,"Working","OW115"
"2023-05-23 11:00",0.491,"Working","OW115"
"2023-05-23 12:00",0.502,"Working","OW115"
"2023-05-23 13:00",0.513,"Working","OW115"
"2023-05-23 14:00",0.526,"Working","OW115"
"2023-05-23 15:00",0.539,"Working","OW115"
"2023-05-23 16:00",0.552,"Working","OW115"
"2023-05-23 17:00",0.565,"Working","OW115"
"2023-05-23 18:00",0.577,"Working","OW115"
"2023-05-23 19:00",0.59,"Working","OW115"
"2023-05-23 20:00",0.602,"Working","OW115"
"2023-05-23 21:00",0.613,"Working","OW115"
"2023-05-23 22:00",0.624,"Working","OW115"
"2023-05-23 23:00",0.633,"Working","OW115"
"2023-05-24 00:00",0.641,"Working","OW115"
"2023-05-24 01:00",0.647,"Working","OW115"
"2023-05-24 02:00",0.653,"Working","OW115"
"2023-05-24 03:00",0.659,"Working","OW115"
"2023-05-24 04:00",0.664,"Working","OW115"
"2023-05-24 05:00",0.669,"Working","OW115"
"2023-05-24 06:00",0.674,"Working","OW115"
"2023-05-24 07:00",0.679,"Working","OW115"
"2023-05-24 08:00",0.685,"Working","OW115"
"2023-05-24 09:00",0.691,"Working","OW115"
"2023-05-24 10:00",0.697,"Working","OW115"
"2023-05-24 11:00",0.704,"Working","OW115"
"2023-05-24 12:00",0.711,"Working","OW115"
"2023-05-24 13:00",0.717,"Working","OW115"
"2023-05-24 14:00",0.724,"Working","OW115"
"2023-05-24 15:00",0.731,"Working","OW115"
"2023-05-24 16:00",0.737,"Working","OW115"
"2023-05-24 17:00",0.744,"Working","OW115"
"2023-05-24 18:00",0.751,"Working","OW115"
"2023-05-24 19:00",0.758,"Working","OW115"
"2023-05-24 20:00",0.765,"Working","OW115"
"2023-05-24 21:00",0.771,"Working","OW115"
"2023-05-24 22:00",0.777,"Working","OW115"
"2023-05-24 23:00",0.782,"Working","OW115"
"2023-05-25 01:00",0.787,"Working","OW115"
"2023-05-25 02:00",0.783,"Working","OW115"
"2023-05-25 03:00",0.776,"Working","OW115"
"2023-05-25 04:00",0.768,"Working","OW115"
"2023-05-25 05:00",0.762,"Working","OW115"
"2023-05-25 06:00",0.759,"Working","OW115"
"2023-05-25 07:00",0.758,"Working","OW115"
"2023-05-25 08:00",0.76,"Working","OW115"
"2023-05-25 09:00",0.764,"Working","OW115"
"2023-05-25 10:00",0.77,"Working","OW115"
"2023-05-25 11:00",0.776,"Working","OW115"
"2023-05-25 12:00",0.783,"Working","OW115"
"2023-05-25 13:00",0.789,"Working","OW115"
"2023-05-25 14:00",0.796,"Working","OW115"
"2023-05-25 15:00",0.802,"Working","OW115"
"2023-05-25 16:00",0.808,"Working","OW115"
"2023-05-25 17:00",0.814,"Working","OW115"
"2023-05-25 18:00",0.819,"Working","OW115"
"2023-05-25 19:00",0.824,"Working","OW115"
"2023-05-25 20:00",0.828,"Working","OW115"
"2023-05-25 21:00",0.831,"Working","OW115"
"2023-05-25 22:00",0.832,"Working","OW115"
"2023-05-25 23:00",0.83,"Working","OW115"
"2023-05-26 00:00",0.827,"Working","OW115"
"2023-05-26 01:00",0.824,"Working","OW115"
"2023-05-26 02:00",0.82,"Working","OW115"
"2023-05-26 03:00",0.817,"Working","OW115"
"2023-05-26 04:00",0.815,"Working","OW115"
"2023-05-26 05:00",0.813,"Working","OW115"
"2023-05-26 06:00",0.813,"Working","OW115"
"2023-05-26 07:00",0.814,"Working","OW115"
"2023-05-26 08:00",0.816,"Working","OW115"
"2023-05-26 09:00",0.819,"Working","OW115"
"2023-05-26 10:00",0.823,"Working","OW115"
"2023-05-26 11:00",0.828,"Working","OW115"
"2023-05-26 12:00",0.833,"Working","OW115"
"2023-05-26 13:00",0.839,"Working","OW115"
"2023-05-26 14:00",0.844,"Working","OW115"
"2023-05-26 15:00",0.849,"Working","OW115"
"2023-05-26 16:00",0.853,"Working","OW115"
"2023-05-26 17:00",0.859,"Working","OW115"
"2023-05-26 18:00",0.863,"Working","OW115"
"2023-05-26 19:00",0.869,"Working","OW115"
"2023-05-26 20:00",0.874,"Working","OW115"
"2023-05-26 21:00",0.878,"Working","OW115"
"2023-05-26 22:00",0.88,"Working","OW115"
"2023-05-26 23:00",0.88,"Working","OW115"
"2023-05-27 00:00",0.88,"Working","OW115"
"2023-05-27 01:00",0.878,"Working","OW115"
"2023-05-27 02:00",0.876,"Working","OW115"
"2023-05-27 03:00",0.87,"Working","OW115"
"2023-05-27 04:00",0.865,"Working","OW115"
"2023-05-27 05:00",0.859,"Working","OW115"
"2023-05-27 06:00",0.854,"Working","OW115"
"2023-05-27 07:00",0.851,"Working","OW115"
"2023-05-27 08:00",0.849,"Working","OW115"
"2023-05-27 09:00",0.85,"Working","OW115"
"2023-05-27 10:00",0.852,"Working","OW115"
"2023-05-27 11:00",0.856,"Working","OW115"
"2023-05-27 12:00",0.86,"Working","OW115"
"2023-05-27 13:00",0.865,"Working","OW115"
"2023-05-27 14:00",0.871,"Working","OW115"
"2023-05-27 15:00",0.877,"Working","OW115"
"2023-05-27 16:00",0.884,"Working","OW115"
"2023-05-27 17:00",0.889,"Working","OW115"
"2023-05-27 18:00",0.894,"Working","OW115"
"2023-05-27 19:00",0.9,"Working","OW115"
"2023-05-27 20:00",0.904,"Working","OW115"
"2023-05-27 21:00",0.908,"Working","OW115"
"2023-05-27 22:00",0.91,"Working","OW115"
"2023-05-27 23:00",0.911,"Working","OW115"
"2023-05-28 00:00",0.91,"Working","OW115"
"2023-05-28 01:00",0.906,"Working","OW115"
"2023-05-28 02:00",0.901,"Working","OW115"
"2023-05-28 03:00",0.895,"Working","OW115"
"2023-05-28 04:00",0.89,"Working","OW115"
"2023-05-28 05:00",0.886,"Working","OW115"
"2023-05-28 06:00",0.882,"Working","OW115"
"2023-05-28 07:00",0.881,"Working","OW115"
"2023-05-28 08:00",0.881,"Working","OW115"
"2023-05-28 09:00",0.883,"Working","OW115"
"2023-05-28 10:00",0.886,"Working","OW115"
"2023-05-28 11:00",0.89,"Working","OW115"
"2023-05-28 13:00",0.9,"Working","OW115"
"2023-05-28 14:00",0.906,"Working","OW115"
"2023-05-28 15:00",0.912,"Working","OW115"
"2023-05-28 16:00",0.918,"Working","OW115"
"2023-05-28 17:00",0.924,"Working","OW115"
"2023-05-28 18:00",0.928,"Working","OW115"
"2023-05-28 19:00",0.933,"Working","OW115"